SCP
0 0 -0 0 0 -0 0 -0 0 0 -0 0 0 0 0 0 0 0 0 0 0 0 0 0 0 0 0 0 0 0 0 0 0 0 0 -0 0 0 0 0 0 0 0 0
0 0 -0 -0 -0 0 0 -0 0 0 -0 0 0 0 0 0 0 0 0 0 0 0 0 0 0 0 0 0 0 0 0 0 0 0 0 0 0 0 0 0 0 0 0 0
0 0 0 -0 -0 -0 0 0 0 0 0 0 0 0 0 0 0 0 -0 -0 0 0 -0 0 0 0 0 0 0 0 0 0 0 0 0 0 0 0 0 0 0 0 0 0
0 0 0 0 -0 0 0 0 0 0 0 0 0 -0 -0 -0 -0 0 0 0 0 0 0 0 0 0 0 0 0 0 0 0 0 0 0 0 0 0 0 0 0 0 0 0
0 0 0 0 -0 -0 0 0 0 0 0 0 -0 -0 -0 -0 0 0 0 0 0 0 0 0 -0 0 0 0 0 -0 0 0 0 0 0 0 0 0 0 0 0 0 0 0
0 0 0 0 -0 0 0 0 0 -0 0 -0 0 0 0 0 0 0 0 0 0 0 0 0 -0 -0 -0 0 0 0 0 0 0 0 0 0 0 0 0 0 0 0 0 0
0 0 0 0 0 0 -0 -0 -0 -0 0 0 0 0 0 0 0 0 0 0 0 0 -0 -0 0 -0 0 0 -0 0 0 0 0 0 0 0 0 0 0 0 0 0 0 0
0 -0 0 -0 -0 -0 -0 -0 -0 -0 -0 0 0 0 0 0 0 0 0 0 0 0 0 0 0 0 -0 -0 -0 -0 0 0 0 0 0 0 0 0 0 0 0 0 0 0
-0 -0 -0 -0 -0 -0 -0 -0 -0 -0 -0 0 0 0 0 0 0 0 0 0 0 0 0 0 0 0 0 0 0 0 0 0 0 0 0 0 0 0 0 0 0 0 0 0
-0 -0 -0 -0 -0 -0 -0 -0 -0 -0 -0 0 -0 -0 0 0 0 0 0 0 0 0 0 0 0 0 0 0 0 0 -0 -0 0 0 0 0 0 0 0 0 0 0 0 0
-0 -0 -0 -0 -0 0 0 0 0 -0 -0 0 -0 0 0 0 0 0 0 0 0 0 0 0 0 0 0 0 0 -0 0 -0 0 -0 0 0 0 0 0 0 0 0 0 0
-0 -0 -0 0 0 0 0 0 0 0 0 0 0 0 0 0 0 0 0 0 0 0 0 0 0 0 0 0 0 0 -0 0 -0 -0 -0 -0 0 0 0 0 -0 0 0 0
-0 0 0 0 0 0 0 0 0 0 0 0 0 0 0 0 0 0 0 0 0 0 0 0 0 0 0 0 0 0 0 -0 -0 0 -0 0 0 -0 -0 0 0 0 0 0
0 0 -0 0 0 0 0 0 0 0 0 0 0 0 0 0 0 0 0 0 0 0 0 0 0 0 0 0 -0 -0 0 0 -0 -0 -0 0 -0 -0 0 0 0 0 0 0
0 -0 -0 0 0 0 0 0 0 0 0 0 0 0 0 0 0 0 0 0 0 0 0 0 0 0 0 0 0 0 0 0 -0 0 -0 -0 -0 -0 -0 0 0 0 0 0
0 0 0 0 0 0 0 0 0 0 0 0 0 0 0 0 0 0 0 0 0 0 0 0 0 0 0 0 0 0 0 -0 0 0 0 -0 -0 -0 -0 0 0 0 0 0
0 0 0 0 0 0 0 0 0 0 0 0 0 0 0 0 0 0 0 0 0 0 0 0 0 0 0 0 0 0 0 0 0 0 -0 0 -0 0 -0 0 0 0 0 0
0 0 0 0 0 0 0 0 0 0 0 0 0 0 0 0 0 0 0 0 0 0 0 0 0 0 0 0 0 0 0 0 0 0 -0 -0 -0 -0 0 0 0 0 0 0
0 0 0 0 0 0 0 0 0 0 0 0 0 0 0 0 0 0 0 0 0 0 0 0 0 0 0 0 -0 0 0 0 -0 -0 -0 0 0 -0 -0 0 0 0 0 0
0 0 0 0 0 0 0 0 0 0 0 0 0 0 0 0 0 0 0 0 0 0 0 0 0 0 0 0 0 0 0 0 0 0 -0 0 0 0 -0 -0 0 0 0 0
0 0 0 0 0 0 0 0 0 0 0 0 0 0 0 0 0 0 0 0 0 0 0 0 0 0 0 0 0 0 0 0 0 0 0 -0 -0 -0 0 0 0 -0 0 0
0 0 0 0 0 0 0 0 0 0 0 0 0 0 0 0 0 0 0 0 0 0 0 0 0 0 0 0 0 0 0 0 0 0 0 -0 -0 -0 0 0 -0 -0 -0 0
0 0 0 0 0 0 0 0 0 0 0 0 0 0 0 0 0 0 0 0 0 0 0 0 0 0 0 0 0 0 0 0 0 0 0 -0 -0 0 0 -0 0 0 -0 -0
0 0 0 0 0 0 0 0 0 0 0 0 0 0 0 0 0 0 0 0 0 0 0 0 0 0 0 0 0 0 0 0 0 0 0 -0 -0 -0 0 -0 -0 -0 -0 -0
0 0 0 0 0 0 0 0 0 0 0 0 0 0 0 0 0 0 0 0 0 0 0 0 0 0 0 0 0 0 0 0 0 0 0 0 -0 -0 -0 -0 -0 -0 -0 -0
0 0 0 0 0 -0 -0 -0 0 0 0 0 0 0 0 0 0 0 0 0 0 0 0 0 0 0 0 0 0 0 0 0 0 0 0 0 0 0 -0 -0 -0 -0 -0 -0
0 0 0 0 0 -0 0 0 0 0 0 0 0 -0 -0 -0 0 0 0 0 0 0 0 0 0 0 0 0 0 0 0 0 0 0 0 0 -0 -0 -0 -0 -0 -0 -0 -0
Wind_Speed_500mb
49 45 43 44 48 45 18 6 5 24 11 19 7 11 9 4 11 5 12 12 16 22 28 30 33 32 25 13 16 20 19 21 29 37 32 45 52 39 54 30 42 43 37 23
46 44 43 42 42 41 17 10 9 24 12 6 10 7 5 6 11 10 12 14 16 28 26 23 24 32 36 6 20 10 22 19 26 31 28 32 28 35 35 40 45 44 40 37
43 44 44 41 36 29 12 13 3 11 28 17 10 1 10 6 10 12 18 17 15 17 22 23 14 27 17 17 31 7 7 26 33 28 15 21 35 47 26 39 34 47 41 45
43 44 42 36 27 22 14 13 11 10 10 18 18 21 11 11 18 19 12 9 8 9 12 21 25 29 30 28 19 18 21 34 36 38 32 29 31 17 26 39 40 34 37 40
45 43 38 31 20 19 16 14 4 13 18 11 22 18 14 15 13 8 2 7 14 10 11 22 29 26 16 27 26 30 26 29 32 36 42 29 33 33 34 36 39 40 43 45
43 38 32 24 21 27 13 14 11 5 10 12 4 6 7 9 17 7 7 9 16 18 11 22 33 36 32 27 24 21 23 20 25 34 35 38 41 44 42 42 42 41 44 48
37 29 24 23 26 33 17 11 10 5 14 8 7 5 8 14 9 13 18 15 17 20 32 43 44 53 55 38 35 36 16 21 20 18 25 32 27 32 37 31 35 49 50 47
28 22 18 23 25 30 20 12 10 9 8 11 8 8 16 13 14 16 8 10 13 26 33 20 21 22 28 39 42 37 35 25 11 15 27 30 38 20 9 11 25 38 38 41
23 15 16 22 23 26 21 13 15 6 7 22 9 9 6 9 14 13 4 12 13 20 11 8 14 7 10 2 10 33 41 36 18 23 29 38 34 24 6 12 29 36 48 45
19 12 17 24 23 19 27 7 15 8 12 21 20 17 11 11 4 9 14 18 6 14 4 6 5 7 5 6 9 11 10 16 32 31 28 24 32 20 8 19 10 56 64 28
15 9 14 18 20 19 22 2 10 8 9 17 14 10 10 10 3 6 20 6 6 4 5 7 8 6 6 7 8 16 11 13 21 29 38 39 13 10 18 13 23 47 52 41
10 9 12 13 9 4 8 9 9 8 5 9 7 9 8 7 3 4 8 6 2 6 2 3 5 5 6 10 4 12 8 9 9 10 12 17 17 26 37 30 28 61 60 33
6 8 12 10 8 4 1 3 19 16 12 14 6 5 7 8 4 3 3 2 11 9 1 2 2 5 5 7 8 7 5 14 7 14 8 32 54 63 50 52 43 55 45 26
6 1 7 15 11 8 7 5 10 11 19 9 8 1 3 5 5 2 7 12 14 18 6 6 2 4 5 5 7 5 7 9 9 8 17 42 35 30 48 64 45 51 19 13
7 5 3 5 6 9 10 14 12 10 11 12 9 13 3 3 2 3 7 12 12 4 4 1 2 4 5 10 8 3 14 7 6 5 21 19 22 41 55 15 17 12 10 5
8 4 4 5 7 8 6 4 2 8 11 12 7 7 10 10 14 10 6 11 21 8 10 7 2 1 2 5 4 17 19 23 31 25 19 33 34 42 43 26 23 23 23 19
8 8 9 10 12 12 6 4 9 16 7 9 11 5 7 11 13 13 19 26 21 11 8 4 2 5 7 7 4 20 19 19 27 29 38 30 45 40 40 28 28 20 22 22
10 10 13 16 18 20 14 13 14 15 6 10 6 7 10 13 5 6 7 10 11 7 3 8 9 12 11 4 25 24 26 23 26 24 27 27 29 37 42 36 33 34 36 30
13 12 13 16 7 6 11 23 21 9 10 6 5 6 7 11 7 4 7 8 5 4 2 5 10 1 4 9 20 21 24 29 25 31 33 35 35 37 39 41 42 42 44 37
12 6 3 6 9 17 21 6 4 7 9 10 9 9 10 6 7 11 5 11 5 3 8 5 5 5 6 9 15 15 17 20 25 27 35 38 38 38 36 40 39 39 36 33
6 5 3 16 19 4 5 8 14 10 11 15 15 20 17 6 6 6 8 1 6 3 6 5 2 5 17 10 13 14 13 15 20 23 23 30 32 35 40 41 39 40 40 39
10 13 8 10 4 7 12 7 6 11 7 16 11 14 18 9 5 7 9 6 12 6 3 5 4 2 11 12 12 15 15 15 17 19 22 25 30 33 32 35 37 40 50 42
8 3 7 9 7 5 7 6 8 11 13 21 25 16 9 5 9 10 8 8 7 2 3 4 6 13 10 9 11 12 12 9 12 16 19 22 27 30 31 27 27 32 33 40
8 10 7 7 9 9 7 16 15 30 26 26 25 22 10 9 8 14 9 1 4 5 7 5 9 12 8 10 10 13 15 12 12 13 16 18 20 24 27 26 24 28 33 29
9 8 5 13 18 27 29 19 35 36 29 31 26 24 13 5 9 5 8 4 5 7 4 10 22 11 7 11 13 15 17 16 14 14 18 17 17 23 27 31 22 22 29 32
7 10 19 23 19 33 45 42 30 38 46 44 31 21 9 8 11 4 8 8 2 5 11 19 6 7 10 12 12 11 14 14 14 19 18 15 17 18 20 25 22 22 22 27
7 15 16 19 33 36 36 36 34 33 16 6 8 2 4 6 3 2 9 3 4 11 14 9 4 5 6 10 11 9 10 8 8 13 18 15 14 12 14 19 14 15 15 21
Wind_Direction_500mb
346 353 355 353 351 355 19 277 259 347 341 244 331 14 17 18 1 314 309 288 283 284 295 292 288 272 268 37 283 254 244 268 247 241 221 226 244 246 232 239 228 234 253 239
349 353 354 354 357 355 8 328 39 15 326 320 73 121 101 24 351 344 341 318 351 326 317 313 278 265 268 267 252 256 276 230 249 250 259 252 243 237 255 255 246 232 227 240
350 351 352 354 359 5 38 300 207 96 46 49 29 197 48 55 71 55 349 304 292 306 273 257 250 282 313 288 255 346 278 264 268 259 329 331 233 237 245 264 239 239 247 228
351 348 351 354 9 44 12 355 59 3 25 49 41 11 339 34 24 18 350 130 25 3 291 314 274 266 271 249 242 246 243 253 260 266 276 282 292 272 232 254 261 268 252 241
348 348 350 1 39 58 33 354 44 97 79 47 52 20 40 353 334 304 26 323 329 319 276 273 300 297 227 257 304 232 230 261 274 266 273 246 254 246 250 253 254 266 274 277
348 350 353 23 70 56 46 53 74 354 100 56 82 48 344 307 307 286 297 305 310 290 319 324 284 282 279 257 243 241 284 259 261 255 250 246 241 239 240 244 247 251 250 253
351 2 8 60 72 76 66 75 79 71 82 64 46 15 351 337 324 275 312 281 269 280 301 299 281 267 260 241 259 252 226 259 253 264 254 253 256 243 240 261 273 238 246 257
4 24 44 72 84 87 68 45 66 54 65 66 110 342 2 350 332 249 271 311 330 318 298 293 264 241 230 239 242 227 235 217 261 245 253 248 255 250 16 359 273 291 281 266
14 47 81 89 90 89 82 57 75 68 16 44 31 356 347 357 338 309 109 355 328 339 344 286 281 329 349 270 257 245 234 216 206 255 243 249 249 87 70 296 265 269 260 254
25 72 95 94 94 94 89 61 76 15 11 46 29 35 14 354 320 279 310 327 41 18 325 285 308 343 349 281 284 272 227 253 223 230 251 256 276 90 321 254 277 336 327 316
35 87 139 114 106 99 80 338 48 53 14 53 33 42 4 348 46 290 350 286 61 316 318 328 8 315 337 295 273 299 258 220 223 236 246 245 348 277 251 324 307 323 309 319
43 127 164 173 153 118 48 316 320 323 266 27 7 25 28 12 2 296 322 6 331 57 358 352 306 315 304 303 344 311 287 353 290 274 254 357 308 293 293 287 279 280 295 298
18 185 194 183 171 181 23 7 304 358 292 243 256 103 59 31 19 287 267 325 5 115 60 252 279 308 347 321 340 303 292 322 281 313 335 341 311 293 289 266 251 257 276 290
358 311 224 240 254 277 284 193 293 321 311 317 241 321 57 91 42 57 274 290 311 277 42 356 5 310 321 289 290 277 264 285 282 277 306 294 275 280 287 261 256 260 244 277
352 22 261 268 269 284 275 272 265 290 316 312 268 192 206 240 262 36 353 322 325 142 96 258 45 246 284 265 268 284 350 345 337 305 314 329 312 325 326 161 198 162 187 128
358 305 290 301 304 330 25 322 237 260 317 295 292 222 208 226 207 222 175 326 314 302 152 231 212 314 239 314 296 339 41 33 23 9 24 20 6 360 13 26 67 84 95 107
341 311 294 292 295 295 217 264 208 288 284 261 296 248 181 213 221 230 235 284 277 327 34 285 43 281 258 329 301 350 39 47 32 19 15 11 23 10 23 25 42 62 82 77
329 306 292 290 288 287 299 266 291 299 235 255 265 287 150 186 221 216 211 248 274 214 95 335 55 359 8 310 341 6 30 49 40 45 47 39 25 25 31 37 39 49 60 55
326 306 297 299 288 261 246 283 282 228 206 271 244 291 355 171 252 228 181 208 278 83 206 266 99 209 254 273 351 3 6 31 28 30 34 38 44 32 29 34 39 40 40 45
318 328 333 238 231 289 295 323 223 216 215 231 245 293 270 224 272 194 221 182 235 155 227 131 158 233 195 12 16 359 357 15 31 37 21 29 34 40 34 32 40 41 45 38
13 278 279 267 284 285 235 240 224 151 208 204 231 250 303 308 278 288 264 129 149 238 197 233 22 322 53 7 13 13 6 10 26 41 34 30 31 37 37 31 33 43 45 40
247 270 279 280 266 247 254 278 234 221 265 192 265 319 297 318 282 262 218 236 199 246 83 49 323 107 43 8 359 358 5 2 12 25 34 25 29 31 42 39 35 34 35 51
308 276 231 221 246 308 221 290 299 286 326 325 310 283 241 136 213 237 232 244 212 303 90 181 236 86 66 11 2 344 350 15 355 9 21 20 24 25 24 41 47 48 43 43
252 217 248 251 236 241 263 297 312 325 308 305 313 296 240 192 214 235 222 219 292 319 50 271 126 69 43 344 345 341 355 16 357 360 12 20 23 19 22 32 43 48 45 41
264 268 245 237 279 324 326 338 328 308 318 306 301 309 345 30 274 284 9 228 127 147 239 23 48 39 356 349 336 346 345 358 10 18 9 14 18 24 24 22 46 57 49 46
250 250 264 283 301 357 357 337 6 359 1 354 23 19 21 351 324 314 319 359 45 55 352 353 359 60 15 345 330 330 337 334 344 8 22 12 9 21 28 24 27 39 49 53
252 252 312 13 301 355 4 357 347 338 37 96 90 130 210 325 276 283 307 73 358 350 316 290 39 33 354 341 313 324 317 313 317 346 356 359 350 357 21 24 18 38 53 65
Wind_Speed_850mb
49 45 43 44 48 45 18 6 5 24 11 19 7 11 9 4 11 5 12 12 16 22 28 30 33 32 25 13 16 20 19 21 29 37 32 45 52 39 54 30 42 43 37 23
46 44 43 42 42 41 17 10 9 24 12 6 10 7 5 6 11 10 12 14 16 28 26 23 24 32 36 6 20 10 22 19 26 31 28 32 28 35 35 40 45 44 40 37
43 44 44 41 36 29 12 13 3 11 28 17 10 1 10 6 10 12 18 17 15 17 22 23 14 27 17 17 31 7 7 26 33 28 15 21 35 47 26 39 34 47 41 45
43 44 42 36 27 22 14 13 11 10 10 18 18 21 11 11 18 19 12 9 8 9 12 21 25 29 30 28 19 18 21 34 36 38 32 29 31 17 26 39 40 34 37 40
45 43 38 31 20 19 16 14 4 13 18 11 22 18 14 15 13 8 2 7 14 10 11 22 29 26 16 27 26 30 26 29 32 36 42 29 33 33 34 36 39 40 43 45
43 38 32 24 21 27 13 14 11 5 10 12 4 6 7 9 17 7 7 9 16 18 11 22 33 36 32 27 24 21 23 20 25 34 35 38 41 44 42 42 42 41 44 48
37 29 24 23 26 33 17 11 10 5 14 8 7 5 8 14 9 13 18 15 17 20 32 43 44 53 55 38 35 36 16 21 20 18 25 32 27 32 37 31 35 49 50 47
28 22 18 23 25 30 20 12 10 9 8 11 8 8 16 13 14 16 8 10 13 26 33 20 21 22 28 39 42 37 35 25 11 15 27 30 38 20 9 11 25 38 38 41
23 15 16 22 23 26 21 13 15 6 7 22 9 9 6 9 14 13 4 12 13 20 11 8 14 7 10 2 10 33 41 36 18 23 29 38 34 24 6 12 29 36 48 45
19 12 17 24 23 19 27 7 15 8 12 21 20 17 11 11 4 9 14 18 6 14 4 6 5 7 5 6 9 11 10 16 32 31 28 24 32 20 8 19 10 56 64 28
15 9 14 18 20 19 22 2 10 8 9 17 14 10 10 10 3 6 20 6 6 4 5 7 8 6 6 7 8 16 11 13 21 29 38 39 13 10 18 13 23 47 52 41
10 9 12 13 9 4 8 9 9 8 5 9 7 9 8 7 3 4 8 6 2 6 2 3 5 5 6 10 4 12 8 9 9 10 12 17 17 26 37 30 28 61 60 33
6 8 12 10 8 4 1 3 19 16 12 14 6 5 7 8 4 3 3 2 11 9 1 2 2 5 5 7 8 7 5 14 7 14 8 32 54 63 50 52 43 55 45 26
6 1 7 15 11 8 7 5 10 11 19 9 8 1 3 5 5 2 7 12 14 18 6 6 2 4 5 5 7 5 7 9 9 8 17 42 35 30 48 64 45 51 19 13
7 5 3 5 6 9 10 14 12 10 11 12 9 13 3 3 2 3 7 12 12 4 4 1 2 4 5 10 8 3 14 7 6 5 21 19 22 41 55 15 17 12 10 5
8 4 4 5 7 8 6 4 2 8 11 12 7 7 10 10 14 10 6 11 21 8 10 7 2 1 2 5 4 17 19 23 31 25 19 33 34 42 43 26 23 23 23 19
8 8 9 10 12 12 6 4 9 16 7 9 11 5 7 11 13 13 19 26 21 11 8 4 2 5 7 7 4 20 19 19 27 29 38 30 45 40 40 28 28 20 22 22
10 10 13 16 18 20 14 13 14 15 6 10 6 7 10 13 5 6 7 10 11 7 3 8 9 12 11 4 25 24 26 23 26 24 27 27 29 37 42 36 33 34 36 30
13 12 13 16 7 6 11 23 21 9 10 6 5 6 7 11 7 4 7 8 5 4 2 5 10 1 4 9 20 21 24 29 25 31 33 35 35 37 39 41 42 42 44 37
12 6 3 6 9 17 21 6 4 7 9 10 9 9 10 6 7 11 5 11 5 3 8 5 5 5 6 9 15 15 17 20 25 27 35 38 38 38 36 40 39 39 36 33
6 5 3 16 19 4 5 8 14 10 11 15 15 20 17 6 6 6 8 1 6 3 6 5 2 5 17 10 13 14 13 15 20 23 23 30 32 35 40 41 39 40 40 39
10 13 8 10 4 7 12 7 6 11 7 16 11 14 18 9 5 7 9 6 12 6 3 5 4 2 11 12 12 15 15 15 17 19 22 25 30 33 32 35 37 40 50 42
8 3 7 9 7 5 7 6 8 11 13 21 25 16 9 5 9 10 8 8 7 2 3 4 6 13 10 9 11 12 12 9 12 16 19 22 27 30 31 27 27 32 33 40
8 10 7 7 9 9 7 16 15 30 26 26 25 22 10 9 8 14 9 1 4 5 7 5 9 12 8 10 10 13 15 12 12 13 16 18 20 24 27 26 24 28 33 29
9 8 5 13 18 27 29 19 35 36 29 31 26 24 13 5 9 5 8 4 5 7 4 10 22 11 7 11 13 15 17 16 14 14 18 17 17 23 27 31 22 22 29 32
7 10 19 23 19 33 45 42 30 38 46 44 31 21 9 8 11 4 8 8 2 5 11 19 6 7 10 12 12 11 14 14 14 19 18 15 17 18 20 25 22 22 22 27
7 15 16 19 33 36 36 36 34 33 16 6 8 2 4 6 3 2 9 3 4 11 14 9 4 5 6 10 11 9 10 8 8 13 18 15 14 12 14 19 14 15 15 21
Wind_Direction_850mb
346 353 355 353 351 355 19 277 259 347 341 244 331 14 17 18 1 314 309 288 283 284 295 292 288 272 268 37 283 254 244 268 247 241 221 226 244 246 232 239 228 234 253 239
349 353 354 354 357 355 8 328 39 15 326 320 73 121 101 24 351 344 341 318 351 326 317 313 278 265 268 267 252 256 276 230 249 250 259 252 243 237 255 255 246 232 227 240
350 351 352 354 359 5 38 300 207 96 46 49 29 197 48 55 71 55 349 304 292 306 273 257 250 282 313 288 255 346 278 264 268 259 329 331 233 237 245 264 239 239 247 228
351 348 351 354 9 44 12 355 59 3 25 49 41 11 339 34 24 18 350 130 25 3 291 314 274 266 271 249 242 246 243 253 260 266 276 282 292 272 232 254 261 268 252 241
348 348 350 1 39 58 33 354 44 97 79 47 52 20 40 353 334 304 26 323 329 319 276 273 300 297 227 257 304 232 230 261 274 266 273 246 254 246 250 253 254 266 274 277
348 350 353 23 70 56 46 53 74 354 100 56 82 48 344 307 307 286 297 305 310 290 319 324 284 282 279 257 243 241 284 259 261 255 250 246 241 239 240 244 247 251 250 253
351 2 8 60 72 76 66 75 79 71 82 64 46 15 351 337 324 275 312 281 269 280 301 299 281 267 260 241 259 252 226 259 253 264 254 253 256 243 240 261 273 238 246 257
4 24 44 72 84 87 68 45 66 54 65 66 110 342 2 350 332 249 271 311 330 318 298 293 264 241 230 239 242 227 235 217 261 245 253 248 255 250 16 359 273 291 281 266
14 47 81 89 90 89 82 57 75 68 16 44 31 356 347 357 338 309 109 355 328 339 344 286 281 329 349 270 257 245 234 216 206 255 243 249 249 87 70 296 265 269 260 254
25 72 95 94 94 94 89 61 76 15 11 46 29 35 14 354 320 279 310 327 41 18 325 285 308 343 349 281 284 272 227 253 223 230 251 256 276 90 321 254 277 336 327 316
35 87 139 114 106 99 80 338 48 53 14 53 33 42 4 348 46 290 350 286 61 316 318 328 8 315 337 295 273 299 258 220 223 236 246 245 348 277 251 324 307 323 309 319
43 127 164 173 153 118 48 316 320 323 266 27 7 25 28 12 2 296 322 6 331 57 358 352 306 315 304 303 344 311 287 353 290 274 254 357 308 293 293 287 279 280 295 298
18 185 194 183 171 181 23 7 304 358 292 243 256 103 59 31 19 287 267 325 5 115 60 252 279 308 347 321 340 303 292 322 281 313 335 341 311 293 289 266 251 257 276 290
358 311 224 240 254 277 284 193 293 321 311 317 241 321 57 91 42 57 274 290 311 277 42 356 5 310 321 289 290 277 264 285 282 277 306 294 275 280 287 261 256 260 244 277
352 22 261 268 269 284 275 272 265 290 316 312 268 192 206 240 262 36 353 322 325 142 96 258 45 246 284 265 268 284 350 345 337 305 314 329 312 325 326 161 198 162 187 128
358 305 290 301 304 330 25 322 237 260 317 295 292 222 208 226 207 222 175 326 314 302 152 231 212 314 239 314 296 339 41 33 23 9 24 20 6 360 13 26 67 84 95 107
341 311 294 292 295 295 217 264 208 288 284 261 296 248 181 213 221 230 235 284 277 327 34 285 43 281 258 329 301 350 39 47 32 19 15 11 23 10 23 25 42 62 82 77
329 306 292 290 288 287 299 266 291 299 235 255 265 287 150 186 221 216 211 248 274 214 95 335 55 359 8 310 341 6 30 49 40 45 47 39 25 25 31 37 39 49 60 55
326 306 297 299 288 261 246 283 282 228 206 271 244 291 355 171 252 228 181 208 278 83 206 266 99 209 254 273 351 3 6 31 28 30 34 38 44 32 29 34 39 40 40 45
318 328 333 238 231 289 295 323 223 216 215 231 245 293 270 224 272 194 221 182 235 155 227 131 158 233 195 12 16 359 357 15 31 37 21 29 34 40 34 32 40 41 45 38
13 278 279 267 284 285 235 240 224 151 208 204 231 250 303 308 278 288 264 129 149 238 197 233 22 322 53 7 13 13 6 10 26 41 34 30 31 37 37 31 33 43 45 40
247 270 279 280 266 247 254 278 234 221 265 192 265 319 297 318 282 262 218 236 199 246 83 49 323 107 43 8 359 358 5 2 12 25 34 25 29 31 42 39 35 34 35 51
308 276 231 221 246 308 221 290 299 286 326 325 310 283 241 136 213 237 232 244 212 303 90 181 236 86 66 11 2 344 350 15 355 9 21 20 24 25 24 41 47 48 43 43
252 217 248 251 236 241 263 297 312 325 308 305 313 296 240 192 214 235 222 219 292 319 50 271 126 69 43 344 345 341 355 16 357 360 12 20 23 19 22 32 43 48 45 41
264 268 245 237 279 324 326 338 328 308 318 306 301 309 345 30 274 284 9 228 127 147 239 23 48 39 356 349 336 346 345 358 10 18 9 14 18 24 24 22 46 57 49 46
250 250 264 283 301 357 357 337 6 359 1 354 23 19 21 351 324 314 319 359 45 55 352 353 359 60 15 345 330 330 337 334 344 8 22 12 9 21 28 24 27 39 49 53
252 252 312 13 301 355 4 357 347 338 37 96 90 130 210 325 276 283 307 73 358 350 316 290 39 33 354 341 313 324 317 313 317 346 356 359 350 357 21 24 18 38 53 65